Observations
| Time | Sensor | AQI | SAQ | Temp °C | Hum % | Pres Pa | CO μg/m³ | H₂S μg/m³ | NO μg/m³ | NO₂ μg/m³ | O₃ μg/m³ | SO₂ μg/m³ | CO₂e PPM | VOC PPM | PM1 μg/m³ | PM2.5 μg/m³ | PM4 μg/m³ | PM10 μg/m³ | TPS µm |
|---|---|---|---|---|---|---|---|---|---|---|---|---|---|---|---|---|---|---|---|
| Wednesday 12 August 2026 | |||||||||||||||||||
| 00:53 | Trim Patrick St | 2 | 20.1 | 61 | 74,283 | 0 | 9.82 | 1.22 | 31.72 | 38.67 | 2.94 | 2.86 | 7.22 | 7.94 | |||||
| 00:53 | Trim Market St | 2 | 20.8 | 57 | 57,887 | 0 | 0 | 1.22 | 32.79 | 51.7 | 0 | 1.43 | 3.14 | 4.02 | |||||
| 00:52 | Trim Patrick St | 2 | 20.1 | 61 | 74,253 | 0 | 8.92 | 1.23 | 28.41 | 42.05 | 2.68 | 4.57 | 8.65 | 9.52 | |||||
| 00:52 | Trim Market St | 2 | 20.8 | 57 | 57,885 | 0 | 0 | 1.22 | 19.16 | 58.99 | 0 | 0.71 | 3.15 | 4.02 | |||||
| 00:51 | Trim Patrick St | 2 | 20.1 | 61 | 74,214 | 0 | 9.58 | 1.22 | 25.5 | 46.15 | 3.11 | 3.71 | 8.67 | 9.53 | |||||
| 00:51 | Trim Market St | 2 | 20.8 | 57 | 57,889 | 0 | 0 | 1.21 | 12.65 | 62 | 0 | 0.71 | 2.65 | 3.31 | |||||
| 00:50 | Trim Patrick St | 2 | 20.1 | 61 | 74,166 | 0 | 10.63 | 1.23 | 28.85 | 38.33 | 2.81 | 4.57 | 8.69 | 9.56 | |||||
| 00:50 | Trim Market St | 2 | 20.8 | 57 | 57,885 | 0 | 0 | 1.21 | 23.54 | 56.34 | 0 | 1.43 | 3.15 | 4.72 | |||||
| 00:49 | Trim Patrick St | 2 | 20.1 | 58 | 74,104 | 0 | 11.16 | 1.19 | 40.34 | 54.15 | 3.85 | 3.71 | 8.18 | 9 | |||||
| 00:49 | Trim Market St | 2 | 20.8 | 57 | 57,883 | 0 | 0 | 1.21 | 24.41 | 60.27 | 0 | 0.71 | 2.65 | 3.31 | |||||
| 00:48 | Trim Patrick St | 2 | 20.2 | 59 | 74,033 | 0 | 8.68 | 1.21 | 29.16 | 39.7 | 2.9 | 4.57 | 9.54 | 10.49 | |||||
| 00:47 | Trim Patrick St | 2 | 20.2 | 61 | 73,982 | 0 | 7.81 | 1.23 | 31.51 | 43.68 | 2.82 | 4.57 | 8.67 | 9.54 | |||||
| 00:47 | Trim Market St | 2 | 20.8 | 57 | 57,873 | 0 | 0 | 1.22 | 19.98 | 61.52 | 0 | 0.71 | 3.16 | 4.71 | |||||
| 00:46 | Trim Patrick St | 2 | 20.2 | 61 | 73,944 | 0 | 7.18 | 1.23 | 17.87 | 45.97 | 3.15 | 4.57 | 8.7 | 9.57 | |||||
| 00:45 | Trim Patrick St | 2 | 20.2 | 61 | 73,897 | 0 | 9.16 | 1.24 | 28.24 | 40.63 | 3.35 | 3.71 | 7.93 | 8.72 | |||||
| 00:45 | Trim Market St | 2 | 20.9 | 57 | 57,864 | 0 | 0 | 1.22 | 16.97 | 61.68 | 0 | 0.71 | 2.67 | 3.3 | |||||
| 00:44 | Trim Patrick St | 2 | 20.2 | 61 | 73,831 | 0 | 9.16 | 1.23 | 17.87 | 44.76 | 3.38 | 4.57 | 9.45 | 10.39 | |||||
| 00:42 | Trim Patrick St | 2 | 20.2 | 61 | 73,725 | 0 | 7.55 | 1.22 | 19.34 | 42.88 | 2.78 | 3.71 | 8.7 | 9.57 | |||||
| 00:42 | Trim Market St | 2 | 20.9 | 57 | 57,855 | 0 | 0 | 1.21 | 19.92 | 57.94 | 0 | 1.43 | 3.18 | 5.41 | |||||
| 00:41 | Trim Patrick St | 2 | 20.2 | 61 | 73,675 | 0 | 9.84 | 1.22 | 27.45 | 40.76 | 3.24 | 3.71 | 7.22 | 7.94 | |||||